This is the latest recevied weather packets stored in our database for station/object K3BAY-1. If no packets are shown the sender has not sent any weather packets the latest 10 day(s).
| Time | Temp. | Humidity | Pressure | Rain* | Wind** | Luminosity | Snow |
|---|---|---|---|---|---|---|---|
| 1777817602 | 11.11° C | 48% | 1014.2 hPa | 0 mm | - | 69 W/m² | - |
| 1777817298 | 10.56° C | 50% | 1014.6 hPa | 0 mm | - | 53 W/m² | - |
| 1777816995 | 10.56° C | 52% | 1014.2 hPa | 0 mm | - | 60 W/m² | - |
| 1777816691 | 10.56° C | 51% | 1014.2 hPa | 0 mm | - | 58 W/m² | - |
| 1777816389 | 10.56° C | 51% | 1014.6 hPa | 0 mm | - | 64 W/m² | - |
| 1777816087 | 10.56° C | 50% | 1014.6 hPa | 0 mm | - | 47 W/m² | - |
| 1777815784 | 10° C | 52% | 1014.6 hPa | 0 mm | - | 43 W/m² | - |
| 1777815481 | 9.44° C | 56% | 1014.9 hPa | 0 mm | - | 40 W/m² | - |
| 1777815179 | 10° C | 55% | 1014.9 hPa | 0 mm | - | 42 W/m² | - |
| 1777814874 | 10° C | 54% | 1015.3 hPa | 0 mm | - | 40 W/m² | - |
| 1777814571 | 10° C | 55% | 1015.3 hPa | 0 mm | - | 39 W/m² | - |
| 1777814268 | 10° C | 55% | 1015.3 hPa | 0 mm | - | 39 W/m² | - |
| 1777813965 | 9.44° C | 57% | 1015.3 hPa | 0 mm | - | 39 W/m² | - |
| 1777813662 | 9.44° C | 58% | 1013.9 hPa | 0 mm | - | 37 W/m² | - |
| 1777813360 | 9.44° C | 58% | 1013.6 hPa | 0 mm | - | 39 W/m² | - |
| 1777813057 | 9.44° C | 58% | 1013.6 hPa | 0 mm | - | 37 W/m² | - |
| 1777812755 | 8.89° C | 61% | 1013.6 hPa | 0 mm | - | 37 W/m² | - |
| 1777812451 | 8.89° C | 60% | 1013.6 hPa | 0 mm | - | 37 W/m² | - |
| 1777812149 | 8.89° C | 59% | 1013.9 hPa | 0 mm | - | 37 W/m² | - |
| 1777811847 | 8.89° C | 60% | 1013.9 hPa | 0 mm | - | 36 W/m² | - |
| 1777811545 | 8.89° C | 60% | 1014.2 hPa | 0 mm | - | 35 W/m² | - |
| 1777811241 | 8.89° C | 60% | 1014.2 hPa | 0 mm | - | 143 W/m² | - |
| 1777810938 | 8.33° C | 62% | 1014.6 hPa | 0 mm | - | 123 W/m² | - |
| 1777810634 | 8.33° C | 63% | 1014.6 hPa | 0 mm | - | 35 W/m² | - |
| 1777810332 | 8.33° C | 64% | 1014.6 hPa | 0 mm | - | 35 W/m² | - |
* Rain latest hour (hover to see other rain measurements)
** Current wind speed in m/s (hover to see current wind gust speed)